View from above orbital plane
|
View from above satellite
|
Ground track
|
The orbit data is extracted from the following two-line orbital elements,
1 43803U 18099AX 22177.75802325 .00001381 00000-0 12441-3 0 9994
2 43803 97.6200 244.5483 0013354 232.6648 127.3358 14.97125601194460
Epoch (UTC): | 26 June 2022 18:11:33 |
Eccentricity: | 0.0013354 |
inclination: | 97.6200° |
perigee height: | 566 km |
apogee height: | 585 km |
right ascension of ascending node: | 244.5483° |
argument of perigee: | 232.6648° |
revolutions per day: | 14.97125601 |
mean anomaly at epoch: | 127.3358° |
orbit number at epoch: | 19446 |
The dashed part of the orbit path shows where the satellite is in the earth's shadow,
|
|